Regional Weather Roundup
Issued by NWS Glasgow, MT

Home | Current Version | Previous Version | Text Only | Print | Product List | Glossary On
Versions: 1 2 3 4 5 6 7 8 9 10 11 12 13 14 15 16 17 18 19 20 21 22 23 24 25 26 27 28 29 30 31 32 33 34 35 36 37 38 39 40 41 42 43 44 45 46 47 48 49 50
000
ASUS45 KGGW 160115
RWRGGW
HOURLY WEATHER ROUNDUP FOR NORTHEAST MONTANA
NATIONAL WEATHER SERVICE GLASGOW MONTANA
700 PM MDT MON SEP 15 2014

NOTE: "FAIR" INDICATES FEW OR NO CLOUDS BELOW 12,000 FEET WITH NO
SIGNIFICANT WEATHER AND/OR OBSTRUCTIONS TO VISISBILITY.

NORTHEAST MONTANA


CITY           SKY/WX    TMP DP  RH WIND       PRES   REMARKS
GLASGOW        CLEAR     63  39  41 E7        30.04S
PLENTYWOOD       N/A     65  27  23 W1          N/A
WOLF POINT     CLEAR     64  37  36 NW5       30.05S
JORDAN           N/A     67  42  40 S3        30.04F
WINNETT          N/A     71  43  36 E2          N/A
SIDNEY         CLEAR     61  37  41 S3        30.08F
GLENDIVE       CLEAR     64  39  39 CALM      30.08F
MALTA            N/A     71  43  36 S2          N/A
SCOBEY           N/A     63  31  30 CALM      30.05S

FORT PECK REPORTS


CITY           SKY/WX    TMP DP  RH WIND       PRES   REMARKS
FORT PECK        N/A     67  38  34 NE3         N/A
THE PINES        N/A     65  44  46 NE5         N/A

SOUTHEAST MONTANA


CITY           SKY/WX    TMP DP  RH WIND       PRES   REMARKS
BILLINGS       PTCLDY    69  45  41 NE5       30.06F
MILES CITY     CLEAR     69  43  38 NE6       30.04F
BAKER          CLEAR     61  44  53 SE6       30.09F
LIVINGSTON     CLEAR     73  29  19 S6        30.07S

CENTRAL MONTANA


CITY           SKY/WX    TMP DP  RH WIND       PRES   REMARKS
HAVRE          CLEAR     70  45  40 E6        30.00F
LEWISTOWN      CLEAR     72  42  34 CALM      30.06F
GREAT FALLS    CLEAR     69  42  37 NE8       30.01F
CUT BANK       NOT AVBL
HELENA         CLEAR     76  38  25 SE6       30.02F
BUTTE          CLEAR     74  25  16 NW8       30.14R
BOZEMAN        CLEAR     70  43  37 CALM      30.07F

WESTERN MONTANA


CITY           SKY/WX    TMP DP  RH WIND       PRES   REMARKS
MISSOULA       CLEAR     79  32  18 S3        29.99F
KALISPELL      NOT AVBL

NORTH DAKOTA


CITY           SKY/WX    TMP DP  RH WIND       PRES   REMARKS
WILLISTON      CLEAR     63  32  31 S3        30.06F
DICKINSON      CLEAR     58  39  49 S5        30.09F
MINOT          CLEAR     60  35  39 SW3       30.07F
BISMARCK       CLEAR     60  39  45 S6        30.12F

SOUTHERN SASKATCHEWAN


CITY           SKY/WX    TMP DP  RH WIND       PRES   REMARKS
REGINA         PTCLDY    59  41  51 NW6       30.02R
ESTEVAN        PTCLDY    55  39  54 SW6       30.05F
SWIFT CURRENT    N/A     64  36  34 NE2       30.00



USA.gov is the U.S. government's official web portal to all federal, state and local government web resources and services.